Showing default

CONNECTA IOT-2, 60522

Orbit data source: Space-Track

CONNECTA IOT-2, 60522 is a payload satellite owned by Plan-S (TR) in SSO that was launched on Fri, 16 Aug 2024 UTC via an FALCON 9 launch vehicle from the Air Force Western Test Range (AFWTR). Payload-class satellites include a variety of spacecraft equipped with specific instruments for various scientific and technological missions. These include communications satellites like Starlink; space stations such as the ISS; scientific satellites like the Hubble; Earth observation satellites from companies like Planet Labs, Umbra, and HawkEye 360; GPS; miniature CubeSats for education and research; and military/defense satellites.

Loading next visibility...
Identifier
60522, 2024-149BG
Orbit
SSO
Country
Flag of TRTR / TURK
Related business
Manufacturer
Plan-S
Mission
Operational Commercial Communications
Bus & Motor
CUBESAT 6U, Unknown motor
Mass
10 kg wet, 10 kg dry
Launch date (UTC)
2024-08-16 (2 years ago)
Launch vehicle
FALCON 9
Launch site
Air Force Western Test Range (AFWTR)
Object type
Payload
Rocket body
Debris
Shape & HBR
Box, 2.2 m
Radar Cross Section
0.080 m², Medium (>0.1 m² and < 1m²)

Expand to show TLE details & history
Last TLE update: 19 hours ago

TLE from 19 hours ago
0 CONNECTA IOT-2
1 60522U 24149BG  26235.47033236  .00003672  00000-0  15232-3 0  9995
2 60522  97.3802 312.6037 0008157  89.8591 270.3581 15.24462407112149
Epoch: 2026-08-23T11:17Z
TLE epoch observation values (Epoch: 2026-08-23T11:17:16.715Z)
Latitude
-0.00008°
Longitude
171.51814°
Altitude
495.467 km
Speed
7.617 km/s
True Right ascension
20h 50m 24s
True Declination
0° 00' 00"
Sunlit
Object was in full shadow at epoch
Visualization orbit readout
Latitude
Unknown
Longitude
Unknown
Altitude
Unknown
Speed
Unknown
Apparent Right ascension
Unknown
Apparent Declination
Unknown
Sunlit
N/A
Visualization observer readout
Local Sidereal Time
21:35:52
Azimuth
Unknown
Elevation
Unknown
Doppler factor
Unknown
Orbital elements
Apogee altitude
494.961 km
Perigee altitude
483.757 km
Semi-major axis
6,867.496 km
Eccentricity
0.00082
Inclination
97.3802°
RAAN
312.6037°
Arg. of periapsis
89.8591°
True anomaly
270.26463°
Mean anomaly
270.3581°
Eccentric anomaly
270.31136°
Mean motion
3.81369 °/min
Orbital period
94.4 mins
BSTAR
0.00015232
Loading maneuver chart data...
Computing Atmospheric mass density...
Loading historical data...
Loading historical data...
Loading historical data...
Loading historical data...
Loading historical data...
Loading historical data...
Loading historical data...

Documentation

Showing up to 5 results
|